Location: 81360 Arifat, France
(43.7204°N, 2.3408°E)
Time: 02:44:20
(UTC+01:00)

ACS3 Solar Sail - Pass Details

Date: 21 October 2025
Orbit: 909 x 993 km, 97.3° (Epoch: 13 November)

Event Time Altitude Azimuth Distance (km) Brightness Sun altitude
Rises 07:01:52 0° 359° (N) 3,553 4.7 -13.4°
Reaches altitude 10° 07:04:51 10° 344° (NNW) 2,613 3.9 -12.9°
Maximum altitude 07:09:01 21° 298° (WNW) 1,953 2.9 -12.2°
Enters shadow 07:12:04 14° 261° (W) 2,333 3.2 -11.6°
